�N����,����,�~����,�C��,���x,�C��,����,���ϕ���,�ő�u�ԕ���,�ő厞����,���˗�,�I�_���x,�n�����x,�ő啗���N��,DTYPE
"17/09/23","00:10",0.0,19.6,95.3,1008.3,293.7,1.0,1.7,307.4,0.00,18.9,21.5,"00:00:56",1
"17/09/23","00:20",0.0,19.6,95.4,1008.3,287.1,0.7,1.8,303.4,0.00,18.9,21.6,"00:11:20",1
"17/09/23","00:30",0.0,19.6,95.4,1007.8,311.2,1.0,1.8,332.5,0.00,18.9,21.5,"00:27:44",1
"17/09/23","00:40",0.2,19.6,95.5,1007.8,274.4,1.0,1.3,269.6,0.00,18.9,21.5,"00:37:12",1
"17/09/23","00:50",0.0,19.5,95.5,1008.1,278.8,0.8,1.2,265.9,0.00,18.8,21.4,"00:41:28",1
"17/09/23","01:00",0.0,19.4,95.5,1007.6,284.9,0.8,1.2,310.6,0.00,18.7,21.6,"00:50:40",1
"17/09/23","01:10",0.0,19.4,95.6,1007.8,274.7,0.7,0.9,271.0,0.00,18.7,21.5,"01:01:04",1
"17/09/23","01:20",0.0,19.5,95.7,1007.4,303.5,1.0,1.2,322.4,0.00,18.8,21.6,"01:15:28",1
"17/09/23","01:30",0.0,19.4,95.7,1007.6,301.2,0.8,1.2,323.7,0.00,18.7,21.6,"01:21:36",1
"17/09/23","01:40",0.0,19.4,95.8,1007.4,284.3,0.8,1.0,304.5,0.00,18.8,21.4,"01:32:24",1
"17/09/23","01:50",0.0,19.3,95.7,1007.1,313.8,1.1,2.0,349.0,0.00,18.6,21.3,"01:48:24",1
"17/09/23","02:00",0.0,19.3,95.7,1006.7,307.1,1.0,1.8,303.7,0.00,18.6,21.2,"01:53:28",1
"17/09/23","02:10",0.0,19.4,95.7,1006.9,279.9,0.8,1.3,302.0,0.00,18.7,21.4,"02:04:40",1
"17/09/23","02:20",0.0,19.4,95.7,1006.9,295.8,0.5,1.1,271.5,0.00,18.7,21.5,"02:10:16",1
"17/09/23","02:30",0.0,19.4,95.7,1006.9,272.0,0.8,1.1,260.3,0.00,18.7,21.6,"02:24:56",1
"17/09/23","02:40",0.0,19.4,95.7,1006.7,307.4,1.1,1.6,322.5,0.00,18.7,21.4,"02:34:08",1
"17/09/23","02:50",0.0,19.4,95.8,1006.7,304.0,1.0,1.6,318.1,0.00,18.8,21.3,"02:47:20",1
"17/09/23","03:00",0.0,19.4,95.9,1006.4,290.2,0.7,1.3,314.8,0.00,18.8,21.5,"02:50:16",1
"17/09/23","03:10",0.0,19.4,95.9,1006.9,305.0,0.6,1.2,302.8,0.00,18.8,21.4,"03:09:52",1
"17/09/23","03:20",0.0,19.4,96.0,1006.9,305.8,1.1,1.7,319.7,0.00,18.8,21.5,"03:11:12",1
"17/09/23","03:30",0.0,19.4,96.1,1006.9,306.2,1.1,1.4,323.8,0.00,18.8,21.5,"03:26:48",1
"17/09/23","03:40",0.0,19.4,96.1,1006.9,312.0,1.1,1.4,315.5,0.00,18.8,21.3,"03:37:12",1
"17/09/23","03:50",0.2,19.4,96.2,1007.1,300.2,1.0,1.6,318.4,0.00,18.8,21.5,"03:46:24",1
"17/09/23","04:00",0.0,19.3,96.2,1007.4,285.5,0.8,1.1,289.1,0.00,18.7,21.6,"03:50:24",1
"17/09/23","04:10",0.0,19.3,96.3,1006.9,316.0,1.2,2.4,334.4,0.00,18.7,21.5,"04:05:20",1
"17/09/23","04:20",0.0,19.3,96.3,1007.1,310.1,1.1,1.8,314.1,0.00,18.7,21.4,"04:14:40",1
"17/09/23","04:30",0.0,19.3,96.4,1007.4,309.7,1.0,1.6,324.7,0.00,18.8,21.4,"04:28:48",1
"17/09/23","04:40",0.0,19.3,96.3,1007.4,326.2,1.3,1.9,334.3,0.00,18.7,21.3,"04:32:00",1
"17/09/23","04:50",0.0,19.4,96.3,1007.4,330.4,1.2,1.9,303.7,0.00,18.8,21.5,"04:41:04",1
"17/09/23","05:00",0.0,19.5,96.2,1007.4,336.7,1.2,2.7,341.9,0.00,18.9,21.3,"04:50:48",1
"17/09/23","05:10",0.0,19.5,96.2,1007.6,317.7,1.6,2.9,314.7,0.00,18.9,21.5,"05:00:02",1
"17/09/23","05:20",0.0,19.5,96.1,1007.6,316.1,1.5,3.1,320.9,0.00,18.9,21.2,"05:18:56",1
"17/09/23","05:30",0.0,19.6,95.9,1007.8,335.9,2.2,4.1,339.3,0.00,19.0,21.2,"05:24:00",1
"17/09/23","05:40",0.0,19.6,95.6,1008.1,324.6,1.7,2.9,337.2,0.00,18.9,21.3,"05:30:08",1
"17/09/23","05:50",0.0,19.5,95.7,1008.1,317.8,1.5,2.2,322.4,0.00,18.8,21.2,"05:41:12",1
"17/09/23","06:00",0.0,19.5,95.8,1007.8,322.4,1.6,2.7,332.4,0.00,18.9,21.2,"05:54:32",1
"17/09/23","06:10",0.0,19.7,95.7,1008.3,289.5,1.0,1.6,301.6,0.00,19.0,21.3,"06:04:00",1
"17/09/23","06:20",0.0,19.9,95.7,1008.3,314.8,1.3,2.2,327.7,0.00,19.2,21.3,"06:17:04",1
"17/09/23","06:30",0.0,20.0,95.5,1008.6,328.6,1.3,2.2,339.2,0.00,19.3,21.3,"06:20:48",1
"17/09/23","06:40",0.0,20.1,95.3,1008.1,320.5,1.5,2.6,323.4,0.02,19.4,21.4,"06:39:36",1
"17/09/23","06:50",0.0,20.4,95.0,1008.3,330.5,1.3,2.4,345.8,0.03,19.6,21.2,"06:42:16",1
"17/09/23","07:00",0.0,20.4,94.6,1008.3,326.8,1.2,2.2,336.0,0.03,19.5,21.3,"06:56:32",1
"17/09/23","07:10",0.0,20.6,94.4,1008.3,289.1,0.7,1.3,324.9,0.02,19.7,21.4,"07:07:04",1
"17/09/23","07:20",0.0,20.8,94.0,1008.6,243.9,0.5,1.1,152.9,0.04,19.8,21.4,"07:13:04",1
"17/09/23","07:30",0.0,20.8,93.6,1008.3,250.0,0.5,1.2,232.7,0.05,19.8,21.4,"07:29:20",1
"17/09/23","07:40",0.0,20.9,93.6,1008.3,243.5,1.0,1.4,245.6,0.06,19.9,21.4,"07:36:16",1
"17/09/23","07:50",0.0,21.6,92.0,1008.1,250.3,1.0,1.7,245.9,0.14,20.3,21.6,"07:42:48",1
"17/09/23","08:00",0.0,22.0,89.7,1008.3,328.4,0.6,1.2,311.6,0.12,20.3,21.5,"07:50:48",1
"17/09/23","08:10",0.0,22.1,89.1,1008.3,187.8,0.2,0.8,211.6,0.08,20.3,21.7,"08:07:20",1
"17/09/23","08:20",0.0,22.8,88.6,1007.8,228.9,0.2,1.0,210.6,0.17,20.9,21.5,"08:10:02",1
"17/09/23","08:30",0.0,22.7,86.6,1008.1,270.8,0.5,1.2,210.4,0.15,20.4,21.7,"08:24:56",1
"17/09/23","08:40",0.0,22.7,87.0,1008.6,247.2,0.3,1.0,252.6,0.13,20.5,21.8,"08:34:32",1
"17/09/23","08:50",0.0,22.8,87.1,1008.6,228.4,1.0,2.1,239.1,0.17,20.6,21.8,"08:46:24",1
"17/09/23","09:00",0.0,24.1,83.4,1008.3,186.4,0.7,2.1,217.9,0.33,21.2,22.0,"08:55:44",1
"17/09/23","09:10",0.0,24.3,81.3,1008.3,183.6,0.7,2.0,204.7,0.35,20.9,22.0,"09:00:48",1
"17/09/23","09:20",0.0,24.8,80.5,1008.3,168.8,1.0,2.6,213.2,0.39,21.3,22.0,"09:17:20",1
"17/09/23","09:30",0.0,24.9,79.5,1008.3,184.3,1.3,2.6,199.3,0.43,21.2,22.2,"09:28:08",1
"17/09/23","09:40",0.0,25.6,78.2,1007.8,201.4,0.8,2.4,209.0,0.45,21.6,22.5,"09:31:20",1
"17/09/23","09:50",0.0,25.7,73.9,1007.6,99.8,0.8,2.2,131.0,0.33,20.7,22.6,"09:41:36",1
"17/09/23","10:00",0.0,25.5,71.7,1007.6,336.1,1.3,3.4,207.7,0.21,20.1,22.7,"09:50:56",1
"17/09/23","10:10",0.0,26.2,67.8,1007.4,332.9,1.2,2.9,341.1,0.36,19.8,22.9,"10:02:56",1
"17/09/23","10:20",0.0,26.6,67.1,1007.4,352.0,0.7,2.2,319.0,0.36,20.0,22.9,"10:14:00",1
"17/09/23","10:30",0.0,25.9,70.6,1007.6,325.6,1.2,3.4,337.5,0.28,20.2,23.0,"10:25:44",1
"17/09/23","10:40",0.0,25.1,73.2,1006.7,311.7,1.2,3.4,343.7,0.15,20.0,23.2,"10:33:36",1
"17/09/23","10:50",0.0,24.7,74.4,1007.6,294.6,1.3,4.8,342.0,0.10,19.9,23.2,"10:44:32",1
"17/09/23","11:00",0.0,24.6,75.5,1007.1,291.4,1.1,2.2,250.9,0.13,20.0,23.3,"10:53:36",1
"17/09/23","11:10",0.0,25.2,73.5,1007.4,302.8,1.2,2.8,344.1,0.21,20.2,23.4,"11:07:44",1
"17/09/23","11:20",0.0,25.0,74.5,1007.4,306.4,1.3,2.8,350.0,0.18,20.2,23.3,"11:14:00",1
"17/09/23","11:30",0.0,25.2,74.4,1007.1,277.7,1.2,2.9,264.8,0.19,20.4,23.5,"11:24:16",1
"17/09/23","11:40",0.0,25.6,72.4,1007.1,295.7,1.2,2.7,265.2,0.23,20.3,23.5,"11:37:44",1
"17/09/23","11:50",0.0,25.6,72.5,1007.1,273.6,1.1,2.8,321.0,0.23,20.3,23.4,"11:41:36",1
"17/09/23","12:00",0.0,26.4,70.0,1007.1,275.7,1.0,2.5,333.5,0.39,20.5,23.5,"11:54:48",1
"17/09/23","12:10",0.0,27.2,64.9,1006.4,349.1,1.3,4.1,352.0,0.39,20.1,23.6,"12:09:28",1
"17/09/23","12:20",0.0,26.9,66.4,1006.4,340.9,1.6,4.0,339.3,0.33,20.2,23.8,"12:16:32",1
"17/09/23","12:30",0.0,27.1,65.4,1006.4,351.4,1.1,2.8,359.0,0.26,20.1,23.8,"12:29:52",1
"17/09/23","12:40",0.0,27.1,62.2,1006.7,15.6,1.1,2.6,329.8,0.34,19.3,24.1,"12:37:20",1
"17/09/23","12:50",0.0,27.1,63.1,1006.9,347.4,1.0,3.6,339.2,0.27,19.5,23.9,"12:45:04",1
"17/09/23","13:00",0.0,26.7,64.9,1006.9,316.3,1.2,3.5,195.2,0.20,19.6,24.2,"12:56:48",1
"17/09/23","13:10",0.0,26.7,67.7,1006.9,273.4,1.0,2.5,269.0,0.23,20.3,24.1,"13:06:56",1
"17/09/23","13:20",0.0,27.1,64.5,1006.9,312.8,1.3,2.8,314.2,0.40,19.9,24.3,"13:16:32",1
"17/09/23","13:30",0.0,26.7,63.9,1006.7,326.6,1.6,3.6,344.3,0.22,19.3,24.2,"13:22:56",1
"17/09/23","13:40",0.0,26.2,65.1,1006.0,346.2,1.6,3.2,339.3,0.14,19.2,24.3,"13:33:44",1
"17/09/23","13:50",0.0,26.3,65.3,1006.0,349.1,1.6,2.6,349.5,0.13,19.3,24.2,"13:47:44",1
"17/09/23","14:00",0.0,26.4,65.3,1006.2,333.3,1.7,4.1,347.6,0.16,19.4,24.1,"13:54:16",1
"17/09/23","14:10",0.0,27.0,63.6,1006.2,338.4,1.1,2.7,339.9,0.23,19.6,24.2,"14:00:08",1
"17/09/23","14:20",0.0,27.0,63.8,1005.7,344.6,1.5,3.4,348.1,0.23,19.6,24.7,"14:16:32",1
"17/09/23","14:30",0.0,27.1,63.0,1005.7,1.5,1.5,3.1,338.2,0.21,19.5,24.3,"14:20:02",1
"17/09/23","14:40",0.0,26.6,61.4,1006.4,330.7,2.2,4.3,333.0,0.19,18.6,24.2,"14:33:12",1
"17/09/23","14:50",0.0,26.6,61.9,1006.4,340.3,1.7,4.1,358.4,0.18,18.7,24.4,"14:41:12",1
"17/09/23","15:00",0.0,26.5,62.4,1006.4,339.5,1.7,4.0,355.6,0.15,18.8,24.5,"14:55:52",1
"17/09/23","15:10",0.0,26.5,62.8,1006.4,357.8,1.5,3.1,329.8,0.14,18.9,24.1,"15:00:48",1
"17/09/23","15:20",0.0,26.7,62.2,1006.4,359.2,1.8,4.4,336.2,0.19,18.9,24.3,"15:18:56",1
"17/09/23","15:30",0.0,27.1,62.5,1006.4,349.6,1.6,4.9,332.2,0.23,19.4,24.4,"15:28:08",1
"17/09/23","15:40",0.0,27.2,60.5,1006.2,332.7,1.1,2.2,333.0,0.21,18.9,24.4,"15:36:56",1
"17/09/23","15:50",0.0,26.6,64.9,1006.4,322.3,1.3,4.3,325.7,0.13,19.5,24.6,"15:43:44",1
"17/09/23","16:00",0.0,26.3,63.9,1006.4,330.6,1.5,2.8,318.8,0.10,19.0,24.3,"15:55:12",1
"17/09/23","16:10",0.0,25.9,64.5,1006.7,337.3,2.0,5.0,335.9,0.05,18.7,24.4,"16:03:20",1
"17/09/23","16:20",0.0,25.5,66.3,1007.1,341.3,1.6,3.3,334.9,0.04,18.8,24.6,"16:17:28",1
"17/09/23","16:30",0.0,25.4,66.8,1007.4,350.8,1.3,2.5,345.8,0.04,18.8,24.0,"16:23:36",1
"17/09/23","16:40",0.0,25.3,66.6,1007.6,353.5,1.5,3.2,345.8,0.05,18.7,24.1,"16:38:08",1
"17/09/23","16:50",0.0,25.1,66.6,1007.6,5.1,1.8,3.4,348.7,0.05,18.5,23.9,"16:40:40",1
"17/09/23","17:00",0.0,24.9,66.8,1007.6,350.0,1.8,3.6,356.3,0.03,18.3,24.2,"16:50:32",1
"17/09/23","17:10",0.0,24.5,68.6,1008.1,329.6,1.3,3.1,342.3,0.01,18.4,23.9,"17:08:40",1
"17/09/23","17:20",0.0,24.2,68.6,1008.3,343.5,1.6,4.1,357.0,0.00,18.1,23.8,"17:14:56",1
"17/09/23","17:30",0.0,23.8,69.7,1008.1,337.9,1.3,2.2,341.0,0.00,18.0,23.7,"17:29:28",1
"17/09/23","17:40",0.0,23.5,71.7,1008.1,332.7,1.5,2.6,332.8,0.00,18.1,23.8,"17:31:44",1
"17/09/23","17:50",0.0,23.3,71.7,1008.6,326.2,1.8,3.6,323.4,0.00,17.9,23.7,"17:40:40",1
"17/09/23","18:00",0.0,23.1,71.4,1009.0,324.2,1.7,3.6,313.6,0.00,17.7,23.5,"17:52:08",1
"17/09/23","18:10",0.0,23.0,72.8,1008.8,334.4,1.2,2.7,334.4,0.00,17.9,23.7,"18:00:48",1
"17/09/23","18:20",0.0,22.6,75.2,1009.0,354.2,1.1,1.9,350.1,0.00,18.0,23.6,"18:18:24",1
"17/09/23","18:30",0.0,22.2,76.9,1009.3,351.4,1.3,2.2,353.6,0.00,18.0,23.6,"18:24:48",1
"17/09/23","18:40",0.0,21.9,78.1,1009.0,337.5,1.1,1.8,334.4,0.00,18.0,23.3,"18:30:32",1
"17/09/23","18:50",0.0,21.6,79.0,1009.3,329.3,1.6,3.3,331.1,0.00,17.8,23.2,"18:46:48",1
"17/09/23","19:00",0.0,21.6,79.4,1009.0,333.2,1.5,3.2,348.7,0.00,17.9,23.2,"18:52:48",1
"17/09/23","19:10",0.0,21.4,79.9,1009.5,317.3,0.8,1.8,337.5,0.00,17.8,23.2,"19:09:28",1
"17/09/23","19:20",0.0,21.1,80.2,1009.7,335.4,1.6,2.8,341.5,0.00,17.6,23.0,"19:19:52",1
"17/09/23","19:30",0.0,21.4,78.5,1009.5,332.3,2.0,3.5,350.2,0.00,17.5,22.9,"19:26:00",1
"17/09/23","19:40",0.0,21.5,76.9,1010.0,334.8,1.8,3.4,353.3,0.00,17.3,23.0,"19:35:04",1
"17/09/23","19:50",0.0,21.5,76.7,1010.2,313.1,1.5,2.7,333.0,0.00,17.3,22.9,"19:44:48",1
"17/09/23","20:00",0.0,21.2,77.0,1010.4,327.6,1.3,2.2,346.0,0.00,17.0,22.8,"19:59:52",1
"17/09/23","20:10",0.0,21.2,78.1,1010.0,338.3,1.3,2.5,349.4,0.00,17.3,22.9,"20:00:32",1
"17/09/23","20:20",0.0,20.8,79.2,1010.2,313.2,0.8,2.6,330.6,0.00,17.1,22.7,"20:10:16",1
"17/09/23","20:30",0.0,20.5,81.0,1010.7,318.9,0.8,1.4,333.1,0.00,17.2,22.7,"20:25:04",1
"17/09/23","20:40",0.0,20.0,83.1,1010.7,317.9,0.7,1.4,319.8,0.00,17.1,22.8,"20:37:20",1
"17/09/23","20:50",0.0,19.9,84.5,1010.2,308.6,0.5,1.1,336.1,0.00,17.3,22.7,"20:41:12",1
"17/09/23","21:00",0.0,19.6,85.7,1010.2,303.9,0.7,1.7,332.6,0.00,17.2,22.5,"20:50:02",1
"17/09/23","21:10",0.0,19.5,86.4,1010.2,322.3,1.8,3.1,327.7,0.00,17.2,22.5,"21:09:12",1
"17/09/23","21:20",0.0,19.8,85.1,1010.4,337.0,1.5,3.6,344.9,0.00,17.3,22.4,"21:10:40",1
"17/09/23","21:30",0.0,19.8,84.5,1010.2,331.2,1.3,3.2,340.9,0.00,17.2,22.4,"21:29:36",1
"17/09/23","21:40",0.0,19.8,84.5,1010.0,310.9,1.3,3.3,335.1,0.00,17.2,22.5,"21:30:32",1
"17/09/23","21:50",0.0,19.9,84.2,1010.0,312.2,1.8,3.1,325.0,0.00,17.2,22.3,"21:44:24",1
"17/09/23","22:00",0.0,19.8,83.9,1010.4,287.4,1.0,1.7,329.0,0.00,17.0,22.3,"21:50:16",1
"17/09/23","22:10",0.0,19.7,83.4,1010.2,309.6,1.1,2.4,319.3,0.00,16.8,22.1,"22:09:08",1
"17/09/23","22:20",0.0,19.7,83.3,1009.7,306.2,1.0,1.4,310.1,0.00,16.8,22.3,"22:15:20",1
"17/09/23","22:30",0.0,19.6,83.5,1010.0,332.6,1.0,1.9,324.1,0.00,16.8,22.0,"22:22:24",1
"17/09/23","22:40",0.0,19.6,83.4,1010.0,351.1,0.7,1.4,325.7,0.00,16.8,22.2,"22:38:16",1
"17/09/23","22:50",0.0,19.6,83.7,1010.0,320.1,0.5,1.2,292.6,0.00,16.8,21.9,"22:43:28",1
"17/09/23","23:00",0.0,19.3,84.6,1010.0,78.8,0.1,0.5,86.9,0.00,16.7,22.1,"22:57:28",1
"17/09/23","23:10",0.0,19.0,85.9,1010.2,303.7,1.2,1.7,308.2,0.00,16.6,22.0,"23:08:32",1
"17/09/23","23:20",0.0,19.1,86.4,1010.2,305.1,1.2,1.9,330.3,0.00,16.8,22.0,"23:17:20",1
"17/09/23","23:30",0.0,19.1,86.7,1009.7,322.3,1.0,1.6,328.3,0.00,16.9,21.9,"23:26:08",1
"17/09/23","23:40",0.0,18.8,87.1,1009.7,311.7,1.0,1.8,323.3,0.00,16.6,22.0,"23:38:48",1
"17/09/23","23:50",0.0,18.5,87.8,1009.5,310.5,1.3,1.7,319.4,0.00,16.5,21.9,"23:45:04",1
"17/09/23","24:00",0.0,18.6,87.8,1009.7,313.6,1.6,3.4,335.1,0.00,16.6,21.6,"23:54:16",1
